Baseball 板


LINE

https://i.imgur.com/vvoWpIk.jpeg ┌─────────┬─────┬─────┬─────┐ │ 满垒打不出来翔平 │初速(mph) │ 距离(ft) │仰角(deg) │ ├─────┬───┼─────┼─────┼─────┤ │ 第一打席 │ K │ │ │ │ ├─────┼───┼─────┼─────┼─────┤ │ 第二打席 │满垒GO│ 77.6 │ 12 │ -8 │ ├─────┼───┼─────┼─────┼─────┤ │ 第三打席 │ K │ │ │ │ ├─────┼───┼─────┼─────┼─────┤ │ 第四打席 │ HR │ 103.7 │ 357 │ 41 │ ├─────┼───┼─────┼─────┼─────┤ │ 第五打席 │ BB │ │ │ │ ├──┬─┬┴┬─┬┴─┬─┬─┼─┬─┬─┼─┬───┤ │ AVG│AB│ R│ H│ RBI│2B│3B│HR│BB│ K│SB│ OPS │ ├──┼─┼─┼─┼──┼─┼─┼─┼─┼─┼─┼───┤ │.222│ 4│ 1│ 1│ 2 │ 0│ 0│ 1│ 1│ 2│ 0│1.007 │ └──┴─┴─┴─┴──┴─┴─┴─┴─┴─┴─┴───┘ 第二打席满垒两出局打出滚地出局 第四打席2:11落後局面打出两分炮 第五打席现场蓝鸟球迷齐喊"we don't need you" https://i.imgur.com/WRXYTrq.jpeg 该打席选到保送,差点被牵制出局XDDDD 终场道奇4:11败给北方王者 WS 蓝鸟1:0道奇 https://i.imgur.com/JpKvr5s.jpeg https://i.imgur.com/mT0RJ0v.jpeg --



※ 发信站: 批踢踢实业坊(ptt.cc), 来自: 59.125.131.163 (台湾)
※ 文章网址: https://webptt.com/cn.aspx?n=bbs/Baseball/M.1761362847.A.666.html
1F:→ i945566: 好快10/25 11:27
2F:推 Vincent8026: =皿=10/25 11:27
3F:推 carlchang092: 明天给学弟一点支援吧10/25 11:27
4F:推 L1ON: 可怜10/25 11:27
5F:→ yeeNeko: 还行啦10/25 11:27
6F:→ lafeelbarth: 垃圾时间10/25 11:27
7F:推 t81511270: 好冷阿 翔平10/25 11:27
8F:推 cl3bp6: 快10/25 11:28
9F:推 wwey2000j: 刷子10/25 11:28
10F:→ CMPunk: 垃圾时间刷数据 可怜哪10/25 11:28
11F:推 RicFlair: 休到笑死10/25 11:28
12F:推 sally09287: 超快10/25 11:28
13F:推 polanco: 笑死 蓝鸟迷好有梗10/25 11:28
14F:推 JWalk77: 垃圾时间10/25 11:28
15F:→ jiaxie: 笑死无关紧要全垒打10/25 11:28
16F:推 lsj049: 刷10/25 11:28
17F:→ a7696405: 除了第一打席,其实还行10/25 11:28
18F:推 f66043284: 又强又烂10/25 11:28
19F:→ misaka10032: 学到捞哥的精髓10/25 11:28
20F:推 howard1997: 看板好好笑10/25 11:28
21F:→ TokyoHard: 满垒打个两分大概率後面也是炸掉,东卖10/25 11:28
22F:推 k960608: 今天打击成绩还行 但是... 10/25 11:28
23F:推 johnwu: MLB姆斯?10/25 11:28
24F:推 don323: https://youtube.com/shorts/iHLGbhBkZOE10/25 11:28
25F:推 eason1065: 蓝鸟败人品 明天希望能扳平10/25 11:28
26F:推 sunsun881207: NOTANI10/25 11:28
27F:→ kauw: Jeter:goat不能只看一场10/25 11:28
28F:推 sunnyisgood: 满垒不轰10/25 11:28
29F:推 amen123: 好强 想必赢了10/25 11:28
30F:推 u9914014: 777710/25 11:28
31F:推 wl00533180: 牛棚这麽烂 怎样都没用啦10/25 11:28
32F:推 okichan: 还好有刷了一支10/25 11:28
33F:推 Seifer601: 数据刷起来10/25 11:28
34F:→ hydra7: 有一K被主审黑的10/25 11:29
35F:→ amsmsk: 姆斯 THE刷10/25 11:29
※ 编辑: Axwell (59.125.131.163 台湾), 10/25/2025 11:29:19
36F:→ JesterCheng: 不差 只是比分近一点应该还是没得打10/25 11:29
37F:推 JoeGibsonJr: notani ohcanada 蛮好笑的10/25 11:29
38F:→ zxcghjko: 无关紧要的一轰10/25 11:29
39F:推 annboy: 刷10/25 11:29
40F:推 lyt5566: 笑死10/25 11:29
41F:推 william80730: 主审赞助1K10/25 11:29
42F:推 dinosd2: 这看起来至少手感还在啊,最後一打席投那麽闪不给打10/25 11:29
43F:推 henry1915: 刷 10/25 11:29
44F:推 a12300: 明天多帮帮学弟吧10/25 11:29
45F:推 norel147: 想赢球 有问过牛棚吗10/25 11:29
46F:推 delhuang: 今天打两只满贯炮也没用 投手太烂了10/25 11:29
47F:推 andykao082: 太快了吧,强10/25 11:29
48F:→ leotompp: 才第七年就姆斯化 可怜R10/25 11:29
49F:推 helacell: 明天继续加油!!!10/25 11:29
50F:推 a7706888: 今天wpa一定扣10/25 11:29
51F:→ yangtsur: 第二打席边线可惜了 第三打席被主审黑掉10/25 11:29
黑在哪 https://i.imgur.com/tRFi6dW.jpeg
52F:嘘 terminator3: 满垒滚地球 输定了全垒打10/25 11:29
53F:→ k33536: 杀人诛心 赢局还要赢话10/25 11:30
54F:推 SphereDavid: 刷数据10/25 11:30
55F:推 askdrlin: No汤腻 蛮好笑的10/25 11:30
56F:→ kenkenken31: 除了第四打席都非常小心,道奇要让大谷畅打还要签大咖10/25 11:30
57F:推 ScotchWhisky: 笑死 每次上来都开轰的话还是输一分10/25 11:30
58F:→ yankees733: 满垒不打 落後9分才打10/25 11:30
59F:推 sixsix666: 想必是战犯10/25 11:30
60F:→ kenkenken31: 木屐和自由老实说吧,已经不是可以保护大谷的等级了10/25 11:30
61F:→ WYchuang: 等等 说好的Nice加拿大人勒10/25 11:30
※ 编辑: Axwell (60.248.240.223 台湾), 10/25/2025 11:31:41
62F:推 JLai1716: 牛棚提前爆炸,太慢了 10/25 11:31
63F:→ usoko: 刷数据躺平 10/25 11:31
64F:推 Krishna: We don't need you 10/25 11:31
65F:嘘 ejonlj: 以前天使 满垒还会乖乖求安打 来道奇一天到晚出局 10/25 11:31
66F:推 wuuman: 去看Box盒 大家干嘛嘴打最好的 10/25 11:31
67F:嘘 ENOZI: 台湾温良恭俭让迷又败人品啦 说说看这次触碰到您哪跟逆鳞 10/25 11:31
68F:→ ENOZI: 了 10/25 11:31
69F:→ kenkenken31: 不然我宁可保送50轰重炮,你後面的前MVP还真得更软柿 10/25 11:32
70F:推 wwey2000j: 压线三振 主审明察秋毫哪里黑了? 10/25 11:32
71F:→ howard1997: 举看板很温和啊 难道要丢选手垃圾或啤酒吗 10/25 11:32
72F:推 s1d87: 翔必,笑死 10/25 11:32
73F:→ f99999993: 刷 10/25 11:33
74F:推 belucky: 还是神人 这场不是你的锅 10/25 11:33
75F:推 preattyall: 牛棚瞬间丢9分,结果扛一半分数的是战犯,神逻辑 10/25 11:33
76F:推 mouz: 满垒时出局,垃圾时间刷分 10/25 11:33
77F:推 Raminrez: 转播的图比较准,根本差很多 10/25 11:33
78F:推 a7706888: 看wpa就知道 10/25 11:33
79F:→ qazse000: 这系列赛大谷投打都要发挥得更好 不然难赢了 10/25 11:33
80F:推 lightjayjw: TBJ球迷有自信,we don't need you 10/25 11:34
81F:推 ScotchWhisky: 算错 每打席都开轰的话是追平耶 战犯无误 10/25 11:34
82F:推 oas: 大哥二哥打击也是要一起负责的..................... 10/25 11:34
83F:推 Romulus: NoTani XD 10/25 11:34
84F:推 cbpa: 这分差,满垒满贯也没用,牛棚这样道奇凉了 10/25 11:34
85F:推 yangmin1028: 刷到了 赚 10/25 11:35
86F:→ gadgets: 怎麽有人怪队友没保护 要确耶 今天又没有被故意保送 10/25 11:35
87F:推 mmmm963: Notani 10/25 11:35
88F:推 ghostl40809: 牛棚核爆打线也不够追 10/25 11:35
89F:推 Turas: 学LBJ刷数据 10/25 11:35
90F:→ aa01081008tw: 投手群爆掉然後一直臭大谷..又不是大谷投球爆掉XD 10/25 11:36
91F:→ www115ui8: 最後一个打席不就被投开 跟ibb有87%像 10/25 11:37
92F:嘘 paiyuchin: 笑死 直播画面根本不是那个位置 还压线咧 10/25 11:38
93F:推 befly10015: 满垒没有建功真的太伤了 10/25 11:40
94F:推 RoastCorn: 这次世界大赛不管谁赢都开心,道奇赢就大谷成功卫冕开 10/25 11:41
95F:→ RoastCorn: 心,蓝鸟赢就小V葛拿冠军也开心 10/25 11:41
96F:推 pirates223: 关键满垒没建功太伤了 但说真的一局掉9分到底怎麽追 10/25 11:41
97F:推 preattyall: 腿 10/25 11:42
98F:→ Axwell: 还直播画面勒 笑死 10/25 11:42
99F:→ Axwell: 快点走出来啦 10/25 11:42
100F:推 a26893997: 笑死 被打爆了才在垃圾时间刷数据 10/25 11:43
101F:推 james7923: 垃圾时间无关紧要的一轰 10/25 11:44
102F:推 preattyall: 打错,是推 10/25 11:45
103F:推 kkkandy: 有一次三振是主审乱搞的.... 10/25 11:46
104F:→ GordonJordan: 有K有HR有搞笑 OK的 10/25 11:48
105F:推 benboy: 加油 明天在一发吧 10/25 11:48
106F:推 jiaching: 有刷到全垒打 没亏 10/25 11:48
107F:推 Beltran: 第二K被海两球搞到 10/25 11:48
108F:推 preattyall: 有第二K的落点图吗 10/25 11:49
109F:推 Romulus: 有没有想过直播画面的框是不准的 10/25 11:50
110F:推 kenkenken31: 是真的很偏心,很多球那个销皮度根本不是人类可以感受 10/25 11:50
111F:→ Romulus: 那主审判的和ABS一样准你该给他掌声啊 10/25 11:50
112F:→ kenkenken31: 是主审偏蓝鸟差不多就给,才会把那些球捡起来 10/25 11:50
113F:→ kenkenken31: 我绝对支持电子好球带,但这主审不是精准是选择性放宽 10/25 11:51
114F:→ Romulus: 你正在自己打脸打的很凶你知道吗 建议先去看电子怎麽判的 10/25 11:52
115F:→ Romulus: 虽然我觉得你根本不知道去哪里查电子资料 10/25 11:52
116F:推 Romulus: https://i.meee.com.tw/zM8qHue.png 10/25 11:55
117F:→ Romulus: 第二K Savant的图 明显看的到Fox的K-Zone太高了 10/25 11:56
118F:嘘 glthe1: 垃圾时间刷数据 10/25 11:56
119F:→ Romulus: Savant的框应该是公开资料里最接近ABS的那种 10/25 11:57
120F:→ Romulus: 然後一堆人拿歪掉的Fox框在那里破口大骂 真的笑死 10/25 11:57
121F:推 supahotfire: 看来赢不了了 10/25 11:58
122F:推 lcw33242976: 惨 开轰也救不了牛棚大火 10/25 11:59
123F:推 RBC54321: 如果球离好球带不远 蓝鸟自然有优势 毕竟捕手较优 10/25 12:00
124F:→ ctes940008: 至少有刷到 10/25 12:01
125F:推 Romulus: 这场主审已经被Kirk影响很少了 削到毛的两边都会给 10/25 12:03
126F:→ Romulus: 比如Snell对Schneider第四球的曲球 10/25 12:04
127F:→ Romulus: 对Bichette第四球的速球之类 10/25 12:04
128F:推 Romulus: ABS挑战上路後先被看破手脚的不是主审而是转播KZ不要不信 10/25 12:06
129F:推 s29961091: 被主审搞 10/25 12:14
130F:推 Timmy21: 谷迷开始表演怪队友嫌队友等级不够了 怎觉得似曾相似XD 10/25 12:20
131F:推 DDhow: 笑死 垃圾时间刷数据 10/25 12:21
132F:推 yangmin1028: 一堆云仔不懂棒球装懂 你前面满垒有开轰击沉 後面高 10/25 12:23
133F:→ yangmin1028: 机率就没有蓝鸟单局9分 10/25 12:23
134F:→ yangmin1028: 调度跟气势全部都不一样 10/25 12:23
135F:推 ke265379ke: 无关紧要 10/25 12:26
136F:→ fit: 这边也在流行如妈蛋爸吗? 你先尻全垒打,人家後面就打不出来XD 10/25 12:37
137F:推 Cliffx: 垃圾时间刷数据 10/25 12:40
138F:→ fit: 这什麽狗屁道理?!以後蓝鸟满垒,是不是换代打都能尻满贯炮?! 10/25 12:40
139F:推 ejonlj: 棒球本来就看气势的 你当每队都中信乐天? 10/25 12:50
140F:→ ejonlj: 大骨那打席有做事 後面就是不可能长那样 10/25 12:50
141F:→ ejonlj: 前面大家都在做事 就大谷躺 就是这场输球的主因 10/25 12:52
142F:→ ejonlj: 还有那个虾挥的怕黑死 10/25 12:53
143F:推 libralibra: 领先那麽多才有机会对上那鸟投开轰 10/25 12:54
144F:→ timidwei: the 刷 10/25 13:02
145F:推 sixsix666: 就说大谷是战犯嘛 只要输球怪他就对了 10/25 13:09
146F:嘘 HinaTomo: 2025年了还在气势 难怪神棍到现在还能骗到人 笑死 10/25 13:34
147F:推 Yuko300: 明天加油来个三响 10/25 13:45
148F:推 nippleking: 看好道奇第二战回魂 蓝鸟迷哭哭 10/25 13:46
149F:→ luck945: 你图片中的3振那颗跟转播位置差好多诶,为啥阿 10/25 15:25
150F:→ luck945: 所以是fox的眶很歪是吗? 10/25 15:26
151F:→ yangmin1028: 有人到了2025还是不懂领先後的调度跟心态都不一样会 10/25 19:43
152F:→ yangmin1028: 影响战局 特别是那个ID特别的..感觉就是活在自己世 10/25 19:43
153F:→ yangmin1028: 界的老人… 10/25 19:43
154F:推 justptt978: 满垒那局要拿分 加油 10/25 23:26
155F:→ s1001326: 啦鸡 10/26 00:44







like.gif 您可能会有兴趣的文章
icon.png[问题/行为] 猫晚上进房间会不会有憋尿问题
icon.pngRe: [闲聊] 选了错误的女孩成为魔法少女 XDDDDDDDDDD
icon.png[正妹] 瑞典 一张
icon.png[心得] EMS高领长版毛衣.墨小楼MC1002
icon.png[分享] 丹龙隔热纸GE55+33+22
icon.png[问题] 清洗洗衣机
icon.png[寻物] 窗台下的空间
icon.png[闲聊] 双极の女神1 木魔爵
icon.png[售车] 新竹 1997 march 1297cc 白色 四门
icon.png[讨论] 能从照片感受到摄影者心情吗
icon.png[狂贺] 贺贺贺贺 贺!岛村卯月!总选举NO.1
icon.png[难过] 羡慕白皮肤的女生
icon.png阅读文章
icon.png[黑特]
icon.png[问题] SBK S1安装於安全帽位置
icon.png[分享] 旧woo100绝版开箱!!
icon.pngRe: [无言] 关於小包卫生纸
icon.png[开箱] E5-2683V3 RX480Strix 快睿C1 简单测试
icon.png[心得] 苍の海贼龙 地狱 执行者16PT
icon.png[售车] 1999年Virage iO 1.8EXi
icon.png[心得] 挑战33 LV10 狮子座pt solo
icon.png[闲聊] 手把手教你不被桶之新手主购教学
icon.png[分享] Civic Type R 量产版官方照无预警流出
icon.png[售车] Golf 4 2.0 银色 自排
icon.png[出售] Graco提篮汽座(有底座)2000元诚可议
icon.png[问题] 请问补牙材质掉了还能再补吗?(台中半年内
icon.png[问题] 44th 单曲 生写竟然都给重复的啊啊!
icon.png[心得] 华南红卡/icash 核卡
icon.png[问题] 拔牙矫正这样正常吗
icon.png[赠送] 老莫高业 初业 102年版
icon.png[情报] 三大行动支付 本季掀战火
icon.png[宝宝] 博客来Amos水蜡笔5/1特价五折
icon.pngRe: [心得] 新鲜人一些面试分享
icon.png[心得] 苍の海贼龙 地狱 麒麟25PT
icon.pngRe: [闲聊] (君の名は。雷慎入) 君名二创漫画翻译
icon.pngRe: [闲聊] OGN中场影片:失踪人口局 (英文字幕)
icon.png[问题] 台湾大哥大4G讯号差
icon.png[出售] [全国]全新千寻侘草LED灯, 水草

请输入看板名称,例如:Gossiping站内搜寻

TOP